Guymon, OK

12:57 AM CST on February 25, 2018 (GMT -0600)
Guymon Municipal

Weather History for KGUY - November, 2011

Change the Weather History Date:

Tuesday, November 8, 2011

  Actual Average Record
Temperature  
Mean Temperature 38 °F 49 °F  
Max Temperature 42 °F 64 °F 88 °F (2006)
Min Temperature 33 °F 34 °F 21 °F (2000)
Degree Days  
Heating Degree Days 27 16  
Month to date heating degree days 147 118  
Since 1 July heating degree days 376 427  
Cooling Degree Days 0 0  
Month to date cooling degree days 0 0  
Year to date cooling degree days 2163 1481  
Moisture  
Dew Point 36 °F    
Average Humidity 91    
Maximum Humidity 96    
Minimum Humidity 85    
Precipitation  
Precipitation 0.46 in 0.02 in 0.46 in (2011)
Month to date precipitation 0.52 0.17  
Year to date precipitation 7.18 18.30  
Snow  
Snow T in - - ()
Month to date snowfall T  
Since 1 July snowfall 1.5  
Since 1 September snowfall 1.5  
Snow Depth 0.00 in    
Sea Level Pressure  
Sea Level Pressure 30.03 in    
Wind  
Wind Speed 13 mph (North)    
Max Wind Speed 25 mph    
Max Gust Speed 30 mph    
Visibility 8 miles    
Events Rain    
T = Trace of Precipitation, MM = Missing Value Source: NWS Daily Summary

Daily Weather History Graph

Daily Weather History Graph

Search for Another Location

Airport or City:

Trip Planner

Search our weather history database for the weather conditions in past years. The results will help you decide how hot, cold, wet, or windy it might be!

Date:

Astronomy

Nov. 08, 2011 Rise Set
Actual Time 7:16 AM CST 5:42 PM CST
Civil Twilight 6:49 AM CST 6:09 PM CST
Nautical Twilight 6:18 AM CST 6:40 PM CST
Astronomical Twilight 5:48 AM CST 7:10 PM CST
Moon 4:22 PM CST (11/8) 5:18 AM CST (11/8)
Length of Visible Light 11h 20m
Length of Day
10h 26m
Waxing Gibbous, 96% of the Moon is Illuminated
Nov 8
Waxing Gibbous
Nov 10
Full
Nov 18
Last Quarter
Nov 25
New
Dec 2
First Quarter

Hourly Weather History & Observations

Time (CST) Temp. Windchill Dew Point Humidity Pressure Visibility Wind Dir Wind Speed Gust Speed Precip Events Conditions
12:42 AM 42.8 °F 35.8 °F 39.2 °F 87% 29.93 in 2.0 mi NE 13.8 mph 21.9 mph 0.01 in Rain Light Rain
12:53 AM 42.1 °F 36.1 °F 41.0 °F 96% 29.93 in 3.0 mi NNE 10.4 mph - 0.01 in   Overcast
1:53 AM 41.0 °F 33.9 °F 39.9 °F 96% 29.91 in 4.0 mi NE 12.7 mph - 0.07 in Rain Light Rain
3:53 AM 41.0 °F 35.2 °F 39.0 °F 93% 29.91 in 7.0 mi North 9.2 mph - 0.07 in Rain Light Rain
4:33 AM 39.2 °F 30.8 °F 39.2 °F 100% 29.90 in 10.0 mi NNE 15.0 mph - 0.00 in   Overcast
4:53 AM 39.9 °F 31.4 °F 37.9 °F 93% 29.87 in 10.0 mi NE 16.1 mph - 0.00 in   Overcast
5:43 AM 39.2 °F 31.6 °F 37.4 °F 93% 29.92 in 10.0 mi NE 12.7 mph - N/A   Overcast
5:53 AM 39.9 °F 33.4 °F 37.9 °F 93% 29.91 in 10.0 mi NE 10.4 mph 20.7 mph N/A   Overcast
6:53 AM 39.9 °F 32.1 °F 37.9 °F 93% 29.89 in 10.0 mi NE 13.8 mph - 0.00 in   Overcast
7:33 AM 39.2 °F 32.5 °F 37.4 °F 93% 29.92 in 10.0 mi NNE 10.4 mph - N/A   Overcast
7:53 AM 39.0 °F 31.0 °F 37.9 °F 96% 29.91 in 10.0 mi NNE 13.8 mph - N/A   Overcast
8:53 AM 39.0 °F 30.6 °F 37.9 °F 96% 29.94 in 10.0 mi NNE 15.0 mph - N/A   Overcast
9:20 AM 39.2 °F 30.5 °F 37.4 °F 93% 29.95 in 10.0 mi NNE 16.1 mph - N/A   Overcast
9:46 AM 37.4 °F 30.8 °F 35.6 °F 93% 30.02 in 1.8 mi North 9.2 mph - 0.07 in Rain Heavy Rain
9:53 AM 37.0 °F 29.3 °F 35.1 °F 93% 30.00 in 1.8 mi North 11.5 mph - 0.16 in Rain Heavy Rain
10:00 AM 37.4 °F 30.3 °F 35.6 °F 93% 30.00 in 2.5 mi North 10.4 mph - 0.03 in Rain Rain
10:08 AM 37.4 °F 31.4 °F 35.6 °F 93% 30.00 in 3.0 mi North 8.1 mph - 0.05 in Rain Rain
10:18 AM 37.4 °F 29.8 °F 35.6 °F 93% 30.00 in 4.0 mi North 11.5 mph - 0.07 in Rain Light Rain
10:53 AM 37.9 °F 29.2 °F 36.0 °F 93% 30.00 in 10.0 mi North 15.0 mph - 0.08 in Rain Light Rain
11:53 AM 37.0 °F 27.4 °F 35.1 °F 93% 30.01 in 10.0 mi North 17.3 mph - 0.01 in Rain Light Rain
12:53 PM 37.0 °F 26.2 °F 35.1 °F 93% 30.00 in 10.0 mi North 21.9 mph 27.6 mph 0.02 in Rain Light Rain
1:53 PM 36.0 °F 26.3 °F 34.0 °F 93% 30.03 in 10.0 mi NNW 16.1 mph 26.5 mph 0.01 in Rain Light Rain
2:49 PM 37.4 °F 26.6 °F 35.6 °F 93% 30.04 in 10.0 mi NNW 21.9 mph 27.6 mph 0.00 in Rain Light Rain
2:53 PM 37.9 °F 27.9 °F 35.1 °F 89% 30.04 in 10.0 mi North 19.6 mph 29.9 mph 0.00 in Rain Light Rain
3:53 PM 37.9 °F 28.5 °F 36.0 °F 93% 30.08 in 10.0 mi NNW 17.3 mph 23.0 mph 0.01 in Rain Light Rain
4:04 PM 37.4 °F 28.9 °F 35.6 °F 93% 30.08 in 10.0 mi NNW 13.8 mph - 0.00 in Rain Light Rain
4:34 PM 39.2 °F 30.8 °F 37.4 °F 93% 30.09 in 10.0 mi NNW 15.0 mph - 0.00 in   Overcast
5:01 PM 41.0 °F 33.1 °F 37.4 °F 87% 30.10 in 10.0 mi NNW 15.0 mph - N/A   Overcast
5:53 PM 41.0 °F 32.8 °F 37.0 °F 86% 30.14 in 10.0 mi NNW 16.1 mph - N/A   Overcast
6:04 PM 41.0 °F 33.5 °F 37.4 °F 87% 30.15 in 10.0 mi NNW 13.8 mph - N/A   Overcast
6:53 PM 39.9 °F 31.8 °F 36.0 °F 86% 30.18 in 10.0 mi NNW 15.0 mph - N/A   Overcast
7:53 PM 39.0 °F 31.8 °F 35.1 °F 86% 30.21 in 10.0 mi North 11.5 mph - N/A   Mostly Cloudy
8:53 PM 35.1 °F 28.6 °F 33.1 °F 92% 30.24 in 10.0 mi NW 8.1 mph - N/A   Clear
9:53 PM 35.1 °F 28.6 °F 32.0 °F 89% 30.27 in 10.0 mi WNW 8.1 mph - N/A   Clear
10:53 PM 34.0 °F 26.6 °F 32.0 °F 92% 30.29 in 10.0 mi WNW 9.2 mph - N/A   Clear
11:53 PM 34.0 °F 28.0 °F 30.9 °F 89% 30.30 in 10.0 mi West 6.9 mph - N/A   Clear